Year,Month,Day,Hour,Minute,Value (Times are PST for temperature in C)
2008,07,14,00,00,12.80
2008,07,14,00,01,12.80
2008,07,14,00,02,12.80
2008,07,14,00,03,12.80
2008,07,14,00,04,12.80
2008,07,14,00,05,12.70
2008,07,14,00,06,12.70
2008,07,14,00,07,12.70
2008,07,14,00,08,12.70
2008,07,14,00,09,12.70
2008,07,14,00,10,12.70
2008,07,14,00,11,12.70
2008,07,14,00,12,12.70
2008,07,14,00,13,12.70
2008,07,14,00,14,12.70
2008,07,14,00,15,12.70
2008,07,14,00,16,12.70
2008,07,14,00,17,12.70
2008,07,14,00,18,12.70
2008,07,14,00,19,12.70
2008,07,14,00,20,12.60
2008,07,14,00,21,12.60
2008,07,14,00,22,12.60
2008,07,14,00,23,12.60
2008,07,14,00,24,12.60
2008,07,14,00,25,12.60
2008,07,14,00,26,12.60
2008,07,14,00,27,12.60
2008,07,14,00,28,12.50
2008,07,14,00,29,12.50
2008,07,14,00,30,12.50
2008,07,14,00,31,12.50
2008,07,14,00,32,12.50
2008,07,14,00,33,12.50
2008,07,14,00,34,12.40
2008,07,14,00,35,12.40
2008,07,14,00,36,12.30
2008,07,14,00,37,12.30
2008,07,14,00,38,12.30
2008,07,14,00,39,12.30
2008,07,14,00,40,12.30
2008,07,14,00,41,12.30
2008,07,14,00,42,12.20
2008,07,14,00,43,12.20
2008,07,14,00,44,12.20
2008,07,14,00,45,12.20
2008,07,14,00,46,12.20
2008,07,14,00,47,12.10
2008,07,14,00,48,12.10
2008,07,14,00,49,12.10
2008,07,14,00,50,12.10
2008,07,14,00,51,12.10
2008,07,14,00,52,12.10
2008,07,14,00,53,12.10
2008,07,14,00,54,12.10
2008,07,14,00,55,12.10
2008,07,14,00,56,12.10
2008,07,14,00,57,12.10
2008,07,14,00,58,12.00
2008,07,14,00,59,12.00
2008,07,14,01,00,12.00
2008,07,14,01,01,12.00
2008,07,14,01,02,12.00
2008,07,14,01,03,12.00
2008,07,14,01,04,12.00
2008,07,14,01,05,12.00
2008,07,14,01,06,12.00
2008,07,14,01,07,11.90
2008,07,14,01,08,11.90
2008,07,14,01,09,11.90
2008,07,14,01,10,11.90
2008,07,14,01,11,11.90
2008,07,14,01,12,11.90
2008,07,14,01,13,11.90
2008,07,14,01,14,11.90
2008,07,14,01,15,11.90
2008,07,14,01,16,11.90
2008,07,14,01,17,11.90
2008,07,14,01,18,11.90
2008,07,14,01,19,11.90
2008,07,14,01,20,11.90
2008,07,14,01,21,11.90
2008,07,14,01,22,11.90
2008,07,14,01,23,11.90
2008,07,14,01,24,11.90
2008,07,14,01,25,11.90
2008,07,14,01,26,11.90
2008,07,14,01,27,11.90
2008,07,14,01,28,11.80
2008,07,14,01,29,11.80
2008,07,14,01,30,11.80
2008,07,14,01,31,11.80
2008,07,14,01,32,11.80
2008,07,14,01,33,11.80
2008,07,14,01,34,11.80
2008,07,14,01,35,11.80
2008,07,14,01,36,11.80
2008,07,14,01,37,11.80
2008,07,14,01,38,11.80
2008,07,14,01,39,11.80
2008,07,14,01,40,11.80
2008,07,14,01,41,11.80
2008,07,14,01,42,11.80
2008,07,14,01,43,11.80
2008,07,14,01,44,11.80
2008,07,14,01,45,11.80
2008,07,14,01,46,11.80
2008,07,14,01,47,11.80
2008,07,14,01,48,11.80
2008,07,14,01,49,11.80
2008,07,14,01,50,11.80
2008,07,14,01,51,11.80
2008,07,14,01,52,11.80
2008,07,14,01,53,11.80
2008,07,14,01,54,11.80
2008,07,14,01,55,11.80
2008,07,14,01,56,11.80
2008,07,14,01,57,11.80
2008,07,14,01,58,11.80
2008,07,14,01,59,11.80
2008,07,14,02,00,11.80
2008,07,14,02,01,11.80
2008,07,14,02,02,11.80
2008,07,14,02,03,11.80
2008,07,14,02,04,11.80
2008,07,14,02,05,11.80
2008,07,14,02,06,11.80
2008,07,14,02,07,11.80
2008,07,14,02,08,11.80
2008,07,14,02,09,11.80
2008,07,14,02,10,11.80
2008,07,14,02,11,11.80
2008,07,14,02,12,11.80
2008,07,14,02,13,11.80
2008,07,14,02,14,11.80
2008,07,14,02,15,11.80
2008,07,14,02,16,11.70
2008,07,14,02,17,11.70
2008,07,14,02,18,11.70
2008,07,14,02,19,11.70
2008,07,14,02,20,11.70
2008,07,14,02,21,11.70
2008,07,14,02,22,11.70
2008,07,14,02,23,11.70
2008,07,14,02,24,11.60
2008,07,14,02,25,11.60
2008,07,14,02,26,11.60
2008,07,14,02,27,11.60
2008,07,14,02,28,11.60
2008,07,14,02,29,11.60
2008,07,14,02,30,11.60
2008,07,14,02,31,11.70
2008,07,14,02,32,11.70
2008,07,14,02,33,11.70
2008,07,14,02,34,11.70
2008,07,14,02,35,11.70
2008,07,14,02,36,11.70
2008,07,14,02,37,11.70
2008,07,14,02,38,11.70
2008,07,14,02,39,11.70
2008,07,14,02,40,11.70
2008,07,14,02,41,11.70
2008,07,14,02,42,11.70
2008,07,14,02,43,11.70
2008,07,14,02,44,11.70
2008,07,14,02,45,11.70
2008,07,14,02,46,11.60
2008,07,14,02,47,11.60
2008,07,14,02,48,11.60
2008,07,14,02,49,11.60
2008,07,14,02,50,11.60
2008,07,14,02,51,11.60
2008,07,14,02,52,11.60
2008,07,14,02,53,11.60
2008,07,14,02,54,11.60
2008,07,14,02,55,11.60
2008,07,14,02,56,11.60
2008,07,14,02,57,11.60
2008,07,14,02,58,11.60
2008,07,14,02,59,11.60
2008,07,14,03,00,11.60
2008,07,14,03,01,11.60
2008,07,14,03,02,11.60
2008,07,14,03,03,11.60
2008,07,14,03,04,11.60
2008,07,14,03,05,11.60
2008,07,14,03,06,11.60
2008,07,14,03,07,11.60
2008,07,14,03,08,11.60
2008,07,14,03,09,11.60
2008,07,14,03,10,11.60
2008,07,14,03,11,11.60
2008,07,14,03,12,11.60
2008,07,14,03,13,11.60
2008,07,14,03,14,11.60
2008,07,14,03,15,11.60
2008,07,14,03,16,11.60
2008,07,14,03,17,11.60
2008,07,14,03,18,11.60
2008,07,14,03,19,11.50
2008,07,14,03,20,11.40
2008,07,14,03,21,11.40
2008,07,14,03,22,11.40
2008,07,14,03,23,11.40
2008,07,14,03,24,11.40
2008,07,14,03,25,11.40
2008,07,14,03,26,11.40
2008,07,14,03,27,11.40
2008,07,14,03,28,11.40
2008,07,14,03,29,11.40
2008,07,14,03,30,11.30
2008,07,14,03,31,11.30
2008,07,14,03,32,11.30
2008,07,14,03,33,11.30
2008,07,14,03,34,11.30
2008,07,14,03,35,11.30
2008,07,14,03,36,11.30
2008,07,14,03,37,11.30
2008,07,14,03,38,11.30
2008,07,14,03,39,11.30
2008,07,14,03,40,11.30
2008,07,14,03,41,11.30
2008,07,14,03,42,11.30
2008,07,14,03,43,11.30
2008,07,14,03,44,11.30
2008,07,14,03,45,11.30
2008,07,14,03,46,11.30
2008,07,14,03,47,11.30
2008,07,14,03,48,11.30
2008,07,14,03,49,11.30
2008,07,14,03,50,11.30
2008,07,14,03,51,11.30
2008,07,14,03,52,11.30
2008,07,14,03,53,11.30
2008,07,14,03,54,11.30
2008,07,14,03,55,11.30
2008,07,14,03,56,11.30
2008,07,14,03,57,11.30
2008,07,14,03,58,11.30
2008,07,14,03,59,11.30
2008,07,14,04,00,11.30
2008,07,14,04,01,11.30
2008,07,14,04,02,11.20
2008,07,14,04,03,11.20
2008,07,14,04,04,11.20
2008,07,14,04,05,11.20
2008,07,14,04,06,11.20
2008,07,14,04,07,11.20
2008,07,14,04,08,11.20
2008,07,14,04,09,11.20
2008,07,14,04,10,11.20
2008,07,14,04,11,11.20
2008,07,14,04,12,11.20
2008,07,14,04,13,11.20
2008,07,14,04,14,11.20
2008,07,14,04,15,11.20
2008,07,14,04,16,11.20
2008,07,14,04,17,11.20
2008,07,14,04,18,11.10
2008,07,14,04,19,11.10
2008,07,14,04,20,11.10
2008,07,14,04,21,11.10
2008,07,14,04,22,11.10
2008,07,14,04,23,11.10
2008,07,14,04,24,11.10
2008,07,14,04,25,11.10
2008,07,14,04,26,11.10
2008,07,14,04,27,11.10
2008,07,14,04,28,11.10
2008,07,14,04,29,11.10
2008,07,14,04,30,11.10
2008,07,14,04,31,11.10
2008,07,14,04,32,11.10
2008,07,14,04,33,11.10
2008,07,14,04,34,11.10
2008,07,14,04,35,11.10
2008,07,14,04,36,11.10
2008,07,14,04,37,11.10
2008,07,14,04,38,11.10
2008,07,14,04,39,11.10
2008,07,14,04,40,11.10
2008,07,14,04,41,11.10
2008,07,14,04,42,11.10
2008,07,14,04,43,11.10
2008,07,14,04,44,11.10
2008,07,14,04,45,11.10
2008,07,14,04,46,11.10
2008,07,14,04,47,11.10
2008,07,14,04,48,11.10
2008,07,14,04,49,11.10
2008,07,14,04,50,11.10
2008,07,14,04,51,11.10
2008,07,14,04,52,11.10
2008,07,14,04,53,11.10
2008,07,14,04,54,11.10
2008,07,14,04,55,11.10
2008,07,14,04,56,11.10
2008,07,14,04,57,11.10
2008,07,14,04,58,11.10
2008,07,14,04,59,11.10
2008,07,14,05,00,11.10
2008,07,14,05,01,11.00
2008,07,14,05,02,11.00
2008,07,14,05,03,10.90
2008,07,14,05,04,10.90
2008,07,14,05,05,10.90
2008,07,14,05,06,10.90
2008,07,14,05,07,10.90
2008,07,14,05,08,11.00
2008,07,14,05,09,11.00
2008,07,14,05,10,10.90
2008,07,14,05,11,10.90
2008,07,14,05,12,10.90
2008,07,14,05,13,10.90
2008,07,14,05,14,10.90
2008,07,14,05,15,10.90
2008,07,14,05,16,10.90
2008,07,14,05,17,10.90
2008,07,14,05,18,10.90
2008,07,14,05,19,10.90
2008,07,14,05,20,10.90
2008,07,14,05,21,10.90
2008,07,14,05,22,10.90
2008,07,14,05,23,10.90
2008,07,14,05,24,10.90
2008,07,14,05,25,10.90
2008,07,14,05,26,10.90
2008,07,14,05,27,10.90
2008,07,14,05,28,10.90
2008,07,14,05,29,10.80
2008,07,14,05,30,10.80
2008,07,14,05,31,10.80
2008,07,14,05,32,10.80
2008,07,14,05,33,10.70
2008,07,14,05,34,10.70
2008,07,14,05,35,10.70
2008,07,14,05,36,10.60
2008,07,14,05,37,10.60
2008,07,14,05,38,10.60
2008,07,14,05,39,10.60
2008,07,14,05,40,10.60
2008,07,14,05,41,10.60
2008,07,14,05,42,10.60
2008,07,14,05,43,10.60
2008,07,14,05,44,10.60
2008,07,14,05,45,10.60
2008,07,14,05,46,10.60
2008,07,14,05,47,10.60
2008,07,14,05,48,10.60
2008,07,14,05,49,10.60
2008,07,14,05,50,10.60
2008,07,14,05,51,10.60
2008,07,14,05,52,10.70
2008,07,14,05,53,10.70
2008,07,14,05,54,10.70
2008,07,14,05,55,10.70
2008,07,14,05,56,10.60
2008,07,14,05,57,10.60
2008,07,14,05,58,10.60
2008,07,14,05,59,10.60
2008,07,14,06,00,10.60
2008,07,14,06,01,10.60
2008,07,14,06,02,10.60
2008,07,14,06,03,10.70
2008,07,14,06,04,10.70
2008,07,14,06,05,10.80
2008,07,14,06,06,10.80
2008,07,14,06,07,10.90
2008,07,14,06,08,10.90
2008,07,14,06,09,11.00
2008,07,14,06,10,11.10
2008,07,14,06,11,11.10
2008,07,14,06,12,11.20
2008,07,14,06,13,11.20
2008,07,14,06,14,11.30
2008,07,14,06,15,11.30
2008,07,14,06,16,11.30
2008,07,14,06,17,11.40
2008,07,14,06,18,11.40
2008,07,14,06,19,11.50
2008,07,14,06,20,11.60
2008,07,14,06,21,11.60
2008,07,14,06,22,11.60
2008,07,14,06,23,11.70
2008,07,14,06,24,11.70
2008,07,14,06,25,11.70
2008,07,14,06,26,11.80
2008,07,14,06,27,11.80
2008,07,14,06,28,11.80
2008,07,14,06,29,11.80
2008,07,14,06,30,11.90
2008,07,14,06,31,11.90
2008,07,14,06,32,12.00
2008,07,14,06,33,12.00
2008,07,14,06,34,12.10
2008,07,14,06,35,12.20
2008,07,14,06,36,12.20
2008,07,14,06,37,12.30
2008,07,14,06,38,12.30
2008,07,14,06,39,12.30
2008,07,14,06,40,12.30
2008,07,14,06,41,12.30
2008,07,14,06,42,12.30
2008,07,14,06,43,12.30
2008,07,14,06,44,12.30
2008,07,14,06,45,12.40
2008,07,14,06,46,12.40
2008,07,14,06,47,12.50
2008,07,14,06,48,12.50
2008,07,14,06,49,12.50
2008,07,14,06,50,12.50
2008,07,14,06,51,12.50
2008,07,14,06,52,12.50
2008,07,14,06,53,12.50
2008,07,14,06,54,12.50
2008,07,14,06,55,12.50
2008,07,14,06,56,12.60
2008,07,14,06,57,12.60
2008,07,14,06,58,12.70
2008,07,14,06,59,12.80
2008,07,14,07,00,12.80
2008,07,14,07,01,12.80
2008,07,14,07,02,12.90
2008,07,14,07,03,12.90
2008,07,14,07,04,12.90
2008,07,14,07,05,13.00
2008,07,14,07,06,13.10
2008,07,14,07,07,13.20
2008,07,14,07,08,13.30
2008,07,14,07,09,13.40
2008,07,14,07,10,13.50
2008,07,14,07,11,13.60
2008,07,14,07,12,13.60
2008,07,14,07,13,13.70
2008,07,14,07,14,13.70
2008,07,14,07,15,13.80
2008,07,14,07,16,13.80
2008,07,14,07,17,13.90
2008,07,14,07,18,13.90
2008,07,14,07,19,13.90
2008,07,14,07,20,14.00
2008,07,14,07,21,14.00
2008,07,14,07,22,14.00
2008,07,14,07,23,14.10
2008,07,14,07,24,14.10
2008,07,14,07,25,14.20
2008,07,14,07,26,14.20
2008,07,14,07,27,14.20
2008,07,14,07,28,14.20
2008,07,14,07,29,14.30
2008,07,14,07,30,14.40
2008,07,14,07,31,14.40
2008,07,14,07,32,14.50
2008,07,14,07,33,14.60
2008,07,14,07,34,14.60
2008,07,14,07,35,14.70
2008,07,14,07,36,14.70
2008,07,14,07,37,14.70
2008,07,14,07,38,14.80
2008,07,14,07,39,14.70
2008,07,14,07,40,14.70
2008,07,14,07,41,14.70
2008,07,14,07,42,14.70
2008,07,14,07,43,14.80
2008,07,14,07,44,14.90
2008,07,14,07,45,14.90
2008,07,14,07,46,15.00
2008,07,14,07,47,15.00
2008,07,14,07,48,15.00
2008,07,14,07,49,15.00
2008,07,14,07,50,15.00
2008,07,14,07,51,15.00
2008,07,14,07,52,15.10
2008,07,14,07,53,15.10
2008,07,14,07,54,15.10
2008,07,14,07,55,15.20
2008,07,14,07,56,15.20
2008,07,14,07,57,15.20
2008,07,14,07,58,15.30
2008,07,14,07,59,15.30
2008,07,14,08,00,15.30
2008,07,14,08,01,15.40
2008,07,14,08,02,15.50
2008,07,14,08,03,15.60
2008,07,14,08,04,15.60
2008,07,14,08,05,15.70
2008,07,14,08,06,15.80
2008,07,14,08,07,15.80
2008,07,14,08,08,15.90
2008,07,14,08,09,16.00
2008,07,14,08,10,16.10
2008,07,14,08,11,16.20
2008,07,14,08,12,16.20
2008,07,14,08,13,16.30
2008,07,14,08,14,16.30
2008,07,14,08,15,16.40
2008,07,14,08,16,16.40
2008,07,14,08,17,16.50
2008,07,14,08,18,16.60
2008,07,14,08,19,16.70
2008,07,14,08,20,16.70
2008,07,14,08,21,16.70
2008,07,14,08,22,16.80
2008,07,14,08,23,16.70
2008,07,14,08,24,16.70
2008,07,14,08,25,16.70
2008,07,14,08,26,16.70
2008,07,14,08,27,16.70
2008,07,14,08,28,16.70
2008,07,14,08,29,16.60
2008,07,14,08,30,16.60
2008,07,14,08,31,16.60
2008,07,14,08,32,16.70
2008,07,14,08,33,16.70
2008,07,14,08,34,16.80
2008,07,14,08,35,16.80
2008,07,14,08,36,16.80
2008,07,14,08,37,16.80
2008,07,14,08,38,16.70
2008,07,14,08,39,16.70
2008,07,14,08,40,16.60
2008,07,14,08,41,16.60
2008,07,14,08,42,16.60
2008,07,14,08,43,16.60
2008,07,14,08,44,16.60
2008,07,14,08,45,16.60
2008,07,14,08,46,16.70
2008,07,14,08,47,16.70
2008,07,14,08,48,16.70
2008,07,14,08,49,16.60
2008,07,14,08,50,16.60
2008,07,14,08,51,16.70
2008,07,14,08,52,16.70
2008,07,14,08,53,16.70
2008,07,14,08,54,16.70
2008,07,14,08,55,16.80
2008,07,14,08,56,16.80
2008,07,14,08,57,16.80
2008,07,14,08,58,16.90
2008,07,14,08,59,16.90
2008,07,14,09,00,16.90
2008,07,14,09,01,16.90
2008,07,14,09,02,16.90
2008,07,14,09,03,16.90
2008,07,14,09,04,16.80
2008,07,14,09,05,16.80
2008,07,14,09,06,16.80
2008,07,14,09,07,16.90
2008,07,14,09,08,16.90
2008,07,14,09,09,17.00
2008,07,14,09,10,17.00
2008,07,14,09,11,17.00
2008,07,14,09,12,16.90
2008,07,14,09,13,16.90
2008,07,14,09,14,17.00
2008,07,14,09,15,17.00
2008,07,14,09,16,16.90
2008,07,14,09,17,16.80
2008,07,14,09,18,16.80
2008,07,14,09,19,16.90
2008,07,14,09,20,17.00
2008,07,14,09,21,17.10
2008,07,14,09,22,17.10
2008,07,14,09,23,17.20
2008,07,14,09,24,17.10
2008,07,14,09,25,17.10
2008,07,14,09,26,17.00
2008,07,14,09,27,17.10
2008,07,14,09,28,17.10
2008,07,14,09,29,17.20
2008,07,14,09,30,17.20
2008,07,14,09,31,17.20
2008,07,14,09,32,17.20
2008,07,14,09,33,17.30
2008,07,14,09,34,17.30
2008,07,14,09,35,17.30
2008,07,14,09,36,17.40
2008,07,14,09,37,17.50
2008,07,14,09,38,17.50
2008,07,14,09,39,17.60
2008,07,14,09,40,17.50
2008,07,14,09,41,17.50
2008,07,14,09,42,17.50
2008,07,14,09,43,17.50
2008,07,14,09,44,17.30
2008,07,14,09,45,17.30
2008,07,14,09,46,17.30
2008,07,14,09,47,17.30
2008,07,14,09,48,17.40
2008,07,14,09,49,17.50
2008,07,14,09,50,17.60
2008,07,14,09,51,17.70
2008,07,14,09,52,17.70
2008,07,14,09,53,17.70
2008,07,14,09,54,17.70
2008,07,14,09,55,17.70
2008,07,14,09,56,17.70
2008,07,14,09,57,17.80
2008,07,14,09,58,17.90
2008,07,14,09,59,18.00
2008,07,14,10,00,18.10
2008,07,14,10,01,18.20
2008,07,14,10,02,18.30
2008,07,14,10,03,18.30
2008,07,14,10,04,18.40
2008,07,14,10,05,18.20
2008,07,14,10,06,18.10
2008,07,14,10,07,17.90
2008,07,14,10,08,17.80
2008,07,14,10,09,17.80
2008,07,14,10,10,17.80
2008,07,14,10,11,17.80
2008,07,14,10,12,17.80
2008,07,14,10,13,17.90
2008,07,14,10,14,17.90
2008,07,14,10,15,17.90
2008,07,14,10,16,17.90
2008,07,14,10,17,17.90
2008,07,14,10,18,17.90
2008,07,14,10,19,18.10
2008,07,14,10,20,18.10
2008,07,14,10,21,18.10
2008,07,14,10,22,18.10
2008,07,14,10,23,18.10
2008,07,14,10,24,18.10
2008,07,14,10,25,18.10
2008,07,14,10,26,18.00
2008,07,14,10,27,17.90
2008,07,14,10,28,17.90
2008,07,14,10,29,17.90
2008,07,14,10,30,17.90
2008,07,14,10,31,17.90
2008,07,14,10,32,17.90
2008,07,14,10,33,17.90
2008,07,14,10,34,17.80
2008,07,14,10,35,17.90
2008,07,14,10,36,17.90
2008,07,14,10,37,17.90
2008,07,14,10,38,17.80
2008,07,14,10,39,17.80
2008,07,14,10,40,17.90
2008,07,14,10,41,17.90
2008,07,14,10,42,17.80
2008,07,14,10,43,17.80
2008,07,14,10,44,17.90
2008,07,14,10,45,18.00
2008,07,14,10,46,18.10
2008,07,14,10,47,18.10
2008,07,14,10,48,18.10
2008,07,14,10,49,18.10
2008,07,14,10,50,18.20
2008,07,14,10,51,18.20
2008,07,14,10,52,18.30
2008,07,14,10,53,18.40
2008,07,14,10,54,18.50
2008,07,14,10,55,18.50
2008,07,14,10,56,18.50
2008,07,14,10,57,18.40
2008,07,14,10,58,18.20
2008,07,14,10,59,18.00
2008,07,14,11,00,17.70
2008,07,14,11,01,17.50
2008,07,14,11,02,17.50
2008,07,14,11,03,17.50
2008,07,14,11,04,17.60
2008,07,14,11,05,17.70
2008,07,14,11,06,17.80
2008,07,14,11,07,17.90
2008,07,14,11,08,17.80
2008,07,14,11,09,17.70
2008,07,14,11,10,17.70
2008,07,14,11,11,17.70
2008,07,14,11,12,17.70
2008,07,14,11,13,17.70
2008,07,14,11,14,17.70
2008,07,14,11,15,17.70
2008,07,14,11,16,17.60
2008,07,14,11,17,17.60
2008,07,14,11,18,17.70
2008,07,14,11,19,17.70
2008,07,14,11,20,17.70
2008,07,14,11,21,17.80
2008,07,14,11,22,17.80
2008,07,14,11,23,17.90
2008,07,14,11,24,17.90
2008,07,14,11,25,18.10
2008,07,14,11,26,18.20
2008,07,14,11,27,18.10
2008,07,14,11,28,18.00
2008,07,14,11,29,17.90
2008,07,14,11,30,17.90
2008,07,14,11,31,17.90
2008,07,14,11,32,17.90
2008,07,14,11,33,17.90
2008,07,14,11,34,17.90
2008,07,14,11,35,17.80
2008,07,14,11,36,17.70
2008,07,14,11,37,17.70
2008,07,14,11,38,17.80
2008,07,14,11,39,17.90
2008,07,14,11,40,18.00
2008,07,14,11,41,18.10
2008,07,14,11,42,18.20
2008,07,14,11,43,18.30
2008,07,14,11,44,18.40
2008,07,14,11,45,18.50
2008,07,14,11,46,18.60
2008,07,14,11,47,18.70
2008,07,14,11,48,18.70
2008,07,14,11,49,18.80
2008,07,14,11,50,18.90
2008,07,14,11,51,18.90
2008,07,14,11,52,18.90
2008,07,14,11,53,19.00
2008,07,14,11,54,19.10
2008,07,14,11,55,19.10
2008,07,14,11,56,19.00
2008,07,14,11,57,19.00
2008,07,14,11,58,19.10
2008,07,14,11,59,18.90
2008,07,14,12,00,18.90
2008,07,14,12,01,19.00
2008,07,14,12,02,19.10
2008,07,14,12,03,19.20
2008,07,14,12,04,19.40
2008,07,14,12,05,19.40
2008,07,14,12,06,19.40
2008,07,14,12,07,19.30
2008,07,14,12,08,19.30
2008,07,14,12,09,19.30
2008,07,14,12,10,19.40
2008,07,14,12,11,19.50
2008,07,14,12,12,19.60
2008,07,14,12,13,19.70
2008,07,14,12,14,19.70
2008,07,14,12,15,19.70
2008,07,14,12,16,19.70
2008,07,14,12,17,19.70
2008,07,14,12,18,19.60
2008,07,14,12,19,19.60
2008,07,14,12,20,19.70
2008,07,14,12,21,19.70
2008,07,14,12,22,19.50
2008,07,14,12,23,19.40
2008,07,14,12,24,19.20
2008,07,14,12,25,19.10
2008,07,14,12,26,19.10
2008,07,14,12,27,19.10
2008,07,14,12,28,18.90
2008,07,14,12,29,18.90
2008,07,14,12,30,18.90
2008,07,14,12,31,19.10
2008,07,14,12,32,19.10
2008,07,14,12,33,19.20
2008,07,14,12,34,19.20
2008,07,14,12,35,19.20
2008,07,14,12,36,19.30
2008,07,14,12,37,19.40
2008,07,14,12,38,19.40
2008,07,14,12,39,19.40
2008,07,14,12,40,19.40
2008,07,14,12,41,19.50
2008,07,14,12,42,19.60
2008,07,14,12,43,19.70
2008,07,14,12,44,19.80
2008,07,14,12,45,19.90
2008,07,14,12,46,20.00
2008,07,14,12,47,20.10
2008,07,14,12,48,20.20
2008,07,14,12,49,20.20
2008,07,14,12,50,20.40
2008,07,14,12,51,20.60
2008,07,14,12,52,20.70
2008,07,14,12,53,20.80
2008,07,14,12,54,20.90
2008,07,14,12,55,20.80
2008,07,14,12,56,20.60
2008,07,14,12,57,20.50
2008,07,14,12,58,20.40
2008,07,14,12,59,20.40
2008,07,14,13,00,20.30
2008,07,14,13,01,20.30
2008,07,14,13,02,20.40
2008,07,14,13,03,20.50
2008,07,14,13,04,20.40
2008,07,14,13,05,20.20
2008,07,14,13,06,20.10
2008,07,14,13,07,20.10
2008,07,14,13,08,20.10
2008,07,14,13,09,20.10
2008,07,14,13,10,19.90
2008,07,14,13,11,19.80
2008,07,14,13,12,19.80
2008,07,14,13,13,19.80
2008,07,14,13,14,19.90
2008,07,14,13,15,20.10
2008,07,14,13,16,20.10
2008,07,14,13,17,20.10
2008,07,14,13,18,19.90
2008,07,14,13,19,20.00
2008,07,14,13,20,20.10
2008,07,14,13,21,20.10
2008,07,14,13,22,20.20
2008,07,14,13,23,20.00
2008,07,14,13,24,19.90
2008,07,14,13,25,19.90
2008,07,14,13,26,19.90
2008,07,14,13,27,19.90
2008,07,14,13,28,19.90
2008,07,14,13,29,19.90
2008,07,14,13,30,20.00
2008,07,14,13,31,20.10
2008,07,14,13,32,20.20
2008,07,14,13,33,20.20
2008,07,14,13,34,20.30
2008,07,14,13,35,20.40
2008,07,14,13,36,20.40
2008,07,14,13,37,20.40
2008,07,14,13,38,20.40
2008,07,14,13,39,20.50
2008,07,14,13,40,20.50
2008,07,14,13,41,20.40
2008,07,14,13,42,20.20
2008,07,14,13,43,20.20
2008,07,14,13,44,20.20
2008,07,14,13,45,20.10
2008,07,14,13,46,20.10
2008,07,14,13,47,19.90
2008,07,14,13,48,19.70
2008,07,14,13,49,19.50
2008,07,14,13,50,19.40
2008,07,14,13,51,19.40
2008,07,14,13,52,19.50
2008,07,14,13,53,19.50
2008,07,14,13,54,19.40
2008,07,14,13,55,19.40
2008,07,14,13,56,19.60
2008,07,14,13,57,19.80
2008,07,14,13,58,20.10
2008,07,14,13,59,20.20
2008,07,14,14,00,20.20
2008,07,14,14,01,20.10
2008,07,14,14,02,19.90
2008,07,14,14,03,19.90
2008,07,14,14,04,19.90
2008,07,14,14,05,19.90
2008,07,14,14,06,19.90
2008,07,14,14,07,19.90
2008,07,14,14,08,19.90
2008,07,14,14,09,19.90
2008,07,14,14,10,19.90
2008,07,14,14,11,19.90
2008,07,14,14,12,19.80
2008,07,14,14,13,19.80
2008,07,14,14,14,19.80
2008,07,14,14,15,19.80
2008,07,14,14,16,19.90
2008,07,14,14,17,19.80
2008,07,14,14,18,19.80
2008,07,14,14,19,19.90
2008,07,14,14,20,19.90
2008,07,14,14,21,19.80
2008,07,14,14,22,19.70
2008,07,14,14,23,19.60
2008,07,14,14,24,19.50
2008,07,14,14,25,19.50
2008,07,14,14,26,19.50
2008,07,14,14,27,19.30
2008,07,14,14,28,19.10
2008,07,14,14,29,18.90
2008,07,14,14,30,18.80
2008,07,14,14,31,18.80
2008,07,14,14,32,18.80
2008,07,14,14,33,18.70
2008,07,14,14,34,18.70
2008,07,14,14,35,18.70
2008,07,14,14,36,18.70
2008,07,14,14,37,18.70
2008,07,14,14,38,18.70
2008,07,14,14,39,18.70
2008,07,14,14,40,18.60
2008,07,14,14,41,18.50
2008,07,14,14,42,18.50
2008,07,14,14,43,18.40
2008,07,14,14,44,18.50
2008,07,14,14,45,18.50
2008,07,14,14,46,18.50
2008,07,14,14,47,18.40
2008,07,14,14,48,18.30
2008,07,14,14,49,18.30
2008,07,14,14,50,18.30
2008,07,14,14,51,18.30
2008,07,14,14,52,18.50
2008,07,14,14,53,18.60
2008,07,14,14,54,18.80
2008,07,14,14,55,18.90
2008,07,14,14,56,19.10
2008,07,14,14,57,19.30
2008,07,14,14,58,19.40
2008,07,14,14,59,19.60
2008,07,14,15,00,19.70
2008,07,14,15,01,19.90
2008,07,14,15,02,20.00
2008,07,14,15,03,20.10
2008,07,14,15,04,20.20
2008,07,14,15,05,20.30
2008,07,14,15,06,20.20
2008,07,14,15,07,20.30
2008,07,14,15,08,20.40
2008,07,14,15,09,20.30
2008,07,14,15,10,20.30
2008,07,14,15,11,20.30
2008,07,14,15,12,20.30
2008,07,14,15,13,20.30
2008,07,14,15,14,20.30
2008,07,14,15,15,20.30
2008,07,14,15,16,20.30
2008,07,14,15,17,20.20
2008,07,14,15,18,20.20
2008,07,14,15,19,20.20
2008,07,14,15,20,20.20
2008,07,14,15,21,20.20
2008,07,14,15,22,20.20
2008,07,14,15,23,20.20
2008,07,14,15,24,20.30
2008,07,14,15,25,20.30
2008,07,14,15,26,20.40
2008,07,14,15,27,20.40
2008,07,14,15,28,20.50
2008,07,14,15,29,20.50
2008,07,14,15,30,20.60
2008,07,14,15,31,20.70
2008,07,14,15,32,20.80
2008,07,14,15,33,20.80
2008,07,14,15,34,20.80
2008,07,14,15,35,20.90
2008,07,14,15,36,20.90
2008,07,14,15,37,21.00
2008,07,14,15,38,21.10
2008,07,14,15,39,21.30
2008,07,14,15,40,21.30
2008,07,14,15,41,21.40
2008,07,14,15,42,21.40
2008,07,14,15,43,21.40
2008,07,14,15,44,21.30
2008,07,14,15,45,21.40
2008,07,14,15,46,21.40
2008,07,14,15,47,21.30
2008,07,14,15,48,21.30
2008,07,14,15,49,21.20
2008,07,14,15,50,21.20
2008,07,14,15,51,21.20
2008,07,14,15,52,21.30
2008,07,14,15,53,21.30
2008,07,14,15,54,21.30
2008,07,14,15,55,21.40
2008,07,14,15,56,21.50
2008,07,14,15,57,21.60
2008,07,14,15,58,21.60
2008,07,14,15,59,21.70
2008,07,14,16,00,21.90
2008,07,14,16,01,22.00
2008,07,14,16,02,22.10
2008,07,14,16,03,22.20
2008,07,14,16,04,22.30
2008,07,14,16,05,22.30
2008,07,14,16,06,22.30
2008,07,14,16,07,22.20
2008,07,14,16,08,22.10
2008,07,14,16,09,22.00
2008,07,14,16,10,22.00
2008,07,14,16,11,22.00
2008,07,14,16,12,21.90
2008,07,14,16,13,22.00
2008,07,14,16,14,22.00
2008,07,14,16,15,22.10
2008,07,14,16,16,22.10
2008,07,14,16,17,22.10
2008,07,14,16,18,22.20
2008,07,14,16,19,22.30
2008,07,14,16,20,22.30
2008,07,14,16,21,22.20
2008,07,14,16,22,22.20
2008,07,14,16,23,22.30
2008,07,14,16,24,22.40
2008,07,14,16,25,22.40
2008,07,14,16,26,22.40
2008,07,14,16,27,22.40
2008,07,14,16,28,22.50
2008,07,14,16,29,22.60
2008,07,14,16,30,22.60
2008,07,14,16,31,22.70
2008,07,14,16,32,22.70
2008,07,14,16,33,22.80
2008,07,14,16,34,22.70
2008,07,14,16,35,22.60
2008,07,14,16,36,22.50
2008,07,14,16,37,22.50
2008,07,14,16,38,22.60
2008,07,14,16,39,22.60
2008,07,14,16,40,22.60
2008,07,14,16,41,22.50
2008,07,14,16,42,22.30
2008,07,14,16,43,21.80
2008,07,14,16,44,21.30
2008,07,14,16,45,20.50
2008,07,14,16,46,19.70
2008,07,14,16,47,19.10
2008,07,14,16,48,18.80
2008,07,14,16,49,18.50
2008,07,14,16,50,18.20
2008,07,14,16,51,17.80
2008,07,14,16,52,17.50
2008,07,14,16,53,17.20
2008,07,14,16,54,17.00
2008,07,14,16,55,16.80
2008,07,14,16,56,16.70
2008,07,14,16,57,16.60
2008,07,14,16,58,16.50
2008,07,14,16,59,16.40
2008,07,14,17,00,16.40
2008,07,14,17,01,16.50
2008,07,14,17,02,16.60
2008,07,14,17,03,16.70
2008,07,14,17,04,16.70
2008,07,14,17,05,16.70
2008,07,14,17,06,16.70
2008,07,14,17,07,16.70
2008,07,14,17,08,16.70
2008,07,14,17,09,16.60
2008,07,14,17,10,16.40
2008,07,14,17,11,16.40
2008,07,14,17,12,16.40
2008,07,14,17,13,16.50
2008,07,14,17,14,16.60
2008,07,14,17,15,16.70
2008,07,14,17,16,16.80
2008,07,14,17,17,16.80
2008,07,14,17,18,17.00
2008,07,14,17,19,17.20